FW1422 Weather Reports


time (UTC)temp
F
wind
direction
speed
knots
gust
knots
rain 1hr
in
rain 24hr
in
rain mn
in
humidity
%
barometer
mb
20260510083042 59 149 0.0 0.0 0.00 0.11 0.11 84 1011.7
20260510081541 59 149 0.0 1.7 0.00 0.11 0.11 81 1011.6
20260510080045 59 150 0.0 3.5 0.00 0.11 0.11 82 1011.6
20260510074547 60 146 3.5 7.8 0.00 0.13 0.11 81 1011.6
20260510073047 60 149 7.8 11.3 0.01 0.13 0.11 80 1011.8
20260510071538 61 146 11.3 16.5 0.04 0.13 0.11 77 1011.9
20260510070035 61 141 13.9 22.6 0.11 0.13 0.11 82 1012.1
20260510064548 61 142 15.6 21.7 0.11 0.25 0.11 84 1011.7
20260510063034 60 144 13.0 19.1 0.10 0.24 0.10 89 1012.2
20260510061533 60 137 8.7 21.7 0.07 0.21 0.07 91 1012.3
20260510060026 63 149 4.3 8.7 0.00 0.14 0.00 86 1011.2
20260510054527 63 153 2.6 3.5 0.00 0.21 0.00 85 1010.3
20260510053038 63 152 2.6 3.5 0.00 0.21 0.00 86 1010.3
20260510051528 63 150 1.7 4.3 0.00 0.21 0.00 85 1010.4
20260510050019 63 153 3.5 6.1 0.00 0.21 0.00 85 1010.4
20260510044518 63 155 2.6 4.3 0.00 0.28 0.21 85 1010.4
20260510043018 61 152 4.3 6.1 0.00 0.28 0.21 88 1010.5
20260510041518 62 153 1.7 2.6 0.00 0.28 0.21 87 1010.5
20260510040017 63 153 2.6 0.0 0.00 0.00 0.21 85 1010.5
20260510034517 63 152 2.6 4.3 0.00 0.30 0.21 86 1010.6
20260510033016 61 151 0.0 0.0 0.00 0.30 0.21 87 1010.5
20260510031523 61 152 0.0 0.0 0.00 0.30 0.21 87 1010.5
20260510030015 62 152 0.0 0.0 0.00 0.30 0.21 82 1010.5
20260510024514 62 153 0.0 0.0 0.00 0.49 0.21 80 1010.5
20260510023012 63 151 0.0 0.0 0.00 0.49 0.21 80 1010.3
20260510021516 64 151 0.0 0.0 0.00 0.49 0.21 77 1010.0
20260510020012 64 151 0.0 0.0 0.00 0.56 0.21 75 1009.7
20260510014513 65 151 0.0 0.0 0.00 0.56 0.21 73 1009.4
20260510013010 67 150 0.0 0.0 0.00 0.56 0.21 70 1009.3
20260510011510 70 150 0.0 0.0 0.00 0.56 0.21 65 1009.0
20260510010009 71 153 0.0 0.0 0.00 0.60 0.21 53 1008.8
20260510004509 72 147 0.0 0.0 0.00 0.60 0.21 53 1008.7
20260510003008 73 152 0.0 0.0 0.00 0.60 0.21 53 1008.5
20260510001508 74 148 0.0 0.0 0.00 0.60 0.21 54 1008.4
20260510000008 75 152 0.0 6.1 0.00 0.67 0.21 58 1008.2
20260509234506 75 153 4.3 7.8 0.00 0.67 0.21 59 1008.2
20260509233006 75 150 6.1 9.6 0.00 0.67 0.21 57 1008.1
20260509231507 75 150 5.2 9.6 0.00 0.67 0.21 58 1008.0
20260509230004 75 150 1.7 8.7 0.00 0.67 0.21 57 1008.0
20260509224503 75 153 5.2 10.4 0.00 0.67 0.21 58 1008.0
20260509223002 75 148 2.6 10.4 0.00 0.67 0.21 56 1007.9
20260509221626 75 151 5.2 9.6 0.00 0.67 0.21 56 1007.9
20260509220101 75 150 6.1 13.9 0.00 0.67 0.21 55 1007.8
20260509214605 75 152 6.1 11.3 0.00 0.67 0.21 53 1008.0
20260509213059 75 153 0.0 10.4 0.00 0.67 0.21 55 1007.9
20260509211600 75 150 8.7 13.0 0.00 0.67 0.21 56 1008.0
20260509210057 75 148 7.8 13.0 0.00 0.67 0.21 55 1008.1
20260509204551 74 149 7.0 13.0 0.00 0.67 0.21 65 1008.1
20260509203049 74 148 7.8 15.6 0.00 0.67 0.21 62 1008.1
20260509201548 74 151 10.4 13.9 0.00 0.67 0.21 59 1008.1
20260509200049 73 148 9.6 15.6 0.00 0.67 0.21 62 1008.4
20260509194551 73 153 6.1 12.2 0.00 0.67 0.21 68 1008.5
20260509193041 72 155 8.7 13.0 0.00 0.67 0.21 67 1008.4
20260509191539 71 155 7.0 13.0 0.00 0.67 0.21 69 1008.5
20260509190036 71 152 7.0 13.0 0.00 0.67 0.21 71 1008.6
20260509184537 70 154 7.8 13.0 0.00 0.67 0.21 71 1008.6
20260509183039 69 153 6.1 12.2 0.00 0.67 0.21 75 1008.6
20260509181526 68 156 8.7 11.3 0.00 0.67 0.21 75 1008.9
20260509180024 68 156 8.7 0.0 0.00 0.00 0.21 80 1009.1
20260509174538 66 155 7.8 12.2 0.00 0.67 0.21 79 1009.4
20260509173019 66 156 7.0 12.2 0.00 0.67 0.21 78 1009.5
20260509171515 65 153 6.1 12.2 0.00 0.67 0.21 81 1009.8
20260509170014 64 155 6.1 11.3 0.00 0.67 0.21 83 1009.9
20260509164511 63 151 7.0 11.3 0.00 0.67 0.21 84 1010.1
20260509163009 62 153 7.0 10.4 0.00 0.67 0.21 84 1010.2
20260509161506 62 155 7.8 12.2 0.00 0.67 0.21 85 1010.2
20260509160002 61 154 6.1 10.4 0.00 0.67 0.21 88 1010.1
20260509154606 60 155 5.2 8.7 0.00 0.67 0.21 89 1009.9
20260509153057 59 153 4.3 9.6 0.00 0.67 0.21 88 1009.8
20260509151557 58 153 5.2 8.7 0.00 0.67 0.21 89 1009.7
20260509150056 57 154 5.2 9.6 0.00 0.67 0.21 90 1009.6
20260509144552 58 155 7.0 10.4 0.00 0.67 0.21 90 1009.4
20260509143058 58 151 6.1 10.4 0.00 0.67 0.21 90 1009.6
20260509141558 58 155 7.0 10.4 0.00 0.67 0.21 91 1009.6
20260509140059 58 151 6.1 11.3 0.00 0.67 0.21 92 1009.5
20260509134546 58 154 5.2 9.6 0.00 0.67 0.21 93 1009.3
20260509133043 57 154 3.5 7.8 0.00 0.67 0.21 94 1009.3
20260509131542 56 154 5.2 9.6 0.00 0.67 0.21 95 1009.3
20260509130040 56 155 6.1 10.4 0.00 0.67 0.21 95 1009.2
20260509124539 56 153 3.5 6.1 0.00 0.67 0.21 96 1009.2
20260509123046 55 156 3.5 7.8 0.00 0.67 0.21 96 1009.2
20260509121537 55 153 4.3 7.0 0.00 0.67 0.21 96 1009.0
20260509120038 55 153 3.5 7.0 0.00 0.67 0.21 96 1009.0
20260509114536 54 153 3.5 7.0 0.00 0.67 0.21 96 1008.8
20260509113034 0 0.0 0.0 0.00 0.67 0.21 1008.9
20260509111530 0 0.0 0.0 0.00 0.67 0.21 1008.7
20260509110026 0 0.0 0.0 0.00 0.67 0.21 1008.3
20260509104521 0 0.0 0.0 0.00 0.67 0.21 1008.2
20260509103016 0 0.0 0.0 0.00 0.67 0.21 1008.2
20260509101512 0 0.0 0.0 0.00 0.67 0.21 1008.1
20260509100008 0 0.0 0.0 0.00 0.67 0.21 1008.0
20260509094505 0 0.0 0.0 0.00 0.67 0.21 1007.9
20260509093101 55 193 0.0 0.0 0.00 0.67 0.21 96 1007.8
20260509091600 54 150 0.0 0.0 0.00 0.67 0.21 96 1007.7
20260509090101 54 150 0.9 2.6 0.00 0.67 0.21 96 1007.6
20260509084557 54 151 2.6 4.3 0.00 0.67 0.21 96 1007.4